Weather History for Las Cruces, NM

Change the Weather History Date:

Thursday, April 18, 2013

  Actual Average Record
Temperature  
Mean Temperature 50 °F -  
Max Temperature 63 °F 73 °F 86 °F (2012)
Min Temperature 36 °F 46 °F 35 °F (2008)
Degree Days  
Heating Degree Days 16    
Moisture  
Dew Point 11 °F    
Average Humidity 24    
Maximum Humidity 45    
Minimum Humidity 7    
Precipitation  
Precipitation 0.00 in - - ()
Sea Level Pressure  
Sea Level Pressure 30.06 in    
Wind  
Wind Speed 9 mph (NNW)    
Max Wind Speed 16 mph    
Max Gust Speed 26 mph    
Visibility 10 miles    
Events      
Averages and records for this station are not official NWS values.
T = Trace of Precipitation, MM = Missing Value Source: NWS Daily Summary

Daily Weather History Graph

Daily Weather History Graph

Search for Another Location

Airport:

Trip Planner

Search our weather history database for the weather conditions in past years. The results will help you decide how hot, cold, wet, or windy it might be!

Date:

Astronomy

Apr. 18, 2013 Rise Set
Actual Time 6:34 AM MDT 7:39 PM MDT
Civil Twilight 6:09 AM MDT 8:04 PM MDT
Nautical Twilight 5:39 AM MDT 8:35 PM MDT
Astronomical Twilight 5:08 AM MDT 9:06 PM MDT
Moon 12:52 PM MDT 1:51 AM MDT
Length of Visible Light 13h 55m
Length of Day
13h 04m
First Quarter, 52% of the Moon is Illuminated
Apr 18
First Quarter
Apr 25
Full
May 2
Last Quarter
May 9
New
May 17
First Quarter

Hourly Weather History & Observations

Time (MDT) Temp. Windchill Dew Point Humidity Pressure Visibility Wind Dir Wind Speed Gust Speed Precip Events Conditions
12:15 AM 46.8 °F - 20.8 °F 36% 29.99 in 10.0 mi North 9.2 mph - N/A   Clear
12:35 AM 45.3 °F 40.1 °F 20.3 °F 37% 29.99 in 10.0 mi North 10.4 mph - N/A   Clear
12:55 AM 44.4 °F 37.5 °F 21.6 °F 40% 29.99 in 10.0 mi NNW 15.0 mph - N/A   Clear
1:15 AM 44.6 °F 38.4 °F 22.6 °F 42% 29.99 in 10.0 mi North 12.7 mph - N/A   Clear
1:35 AM 42.8 °F 40.1 °F 21.9 °F 44% 30.01 in 10.0 mi ENE 4.6 mph - N/A   Scattered Clouds
1:55 AM 43.3 °F 38.1 °F 21.9 °F 43% 30.00 in 10.0 mi North 9.2 mph - N/A   Scattered Clouds
2:15 AM 43.2 °F 39.0 °F 21.7 °F 43% 30.01 in 10.0 mi NNW 6.9 mph - N/A   Clear
2:35 AM 42.4 °F 36.5 °F 20.8 °F 42% 29.99 in 10.0 mi North 10.4 mph - N/A   Clear
2:55 AM 43.3 °F 37.7 °F 19.9 °F 39% 29.99 in 10.0 mi North 10.4 mph - N/A   Clear
3:35 AM 41.7 °F 37.3 °F 18.5 °F 39% 29.99 in 10.0 mi North 6.9 mph - N/A   Scattered Clouds
3:55 AM 41.0 °F 35.8 °F 19.4 °F 42% 30.00 in 10.0 mi North 8.1 mph - N/A   Mostly Cloudy
4:15 AM 41.4 °F 36.8 °F 19.4 °F 41% 30.00 in 10.0 mi North 6.9 mph - N/A   Mostly Cloudy
4:35 AM 40.8 °F 36.9 °F 19.0 °F 42% 30.01 in 10.0 mi North 5.8 mph - N/A   Overcast
4:55 AM 42.8 °F 38.6 °F 17.4 °F 36% 30.01 in 10.0 mi North 6.9 mph - N/A   Overcast
5:15 AM 42.1 °F 37.1 °F 16.9 °F 36% 30.02 in 10.0 mi North 8.1 mph - N/A   Overcast
5:35 AM 41.0 °F 37.1 °F 16.2 °F 37% 30.02 in 10.0 mi North 5.8 mph - N/A   Scattered Clouds
5:55 AM 39.6 °F 35.4 °F 15.8 °F 38% 30.03 in 10.0 mi North 5.8 mph - N/A   Scattered Clouds
6:15 AM 40.3 °F 35.5 °F 16.9 °F 39% 30.03 in 10.0 mi North 6.9 mph - N/A   Scattered Clouds
6:35 AM 39.4 °F 34.5 °F 17.4 °F 41% 30.04 in 10.0 mi North 6.9 mph - N/A   Scattered Clouds
6:55 AM 36.7 °F 32.0 °F 16.9 °F 45% 30.04 in 10.0 mi NNW 5.8 mph - N/A   Clear
7:15 AM 39.4 °F 35.2 °F 17.6 °F 41% 30.05 in 10.0 mi NNW 5.8 mph - N/A   Clear
7:35 AM 42.6 °F 39.0 °F 17.6 °F 37% 30.06 in 10.0 mi North 5.8 mph - N/A   Clear
7:55 AM 44.8 °F 39.4 °F 18.1 °F 34% 30.07 in 10.0 mi NNW 10.4 mph - N/A   Clear
8:15 AM 45.7 °F 40.6 °F 17.6 °F 33% 30.07 in 10.0 mi NNW 10.4 mph - N/A   Clear
8:35 AM 47.3 °F - 16.5 °F 29% 30.08 in 10.0 mi NNW 16.1 mph - N/A   Clear
8:55 AM 48.2 °F - 15.3 °F 27% 30.08 in 10.0 mi North 12.7 mph 18.4 mph N/A   Clear
9:15 AM 48.6 °F - 15.1 °F 26% 30.08 in 10.0 mi North 16.1 mph - N/A   Clear
9:35 AM 50.2 °F - 15.3 °F 25% 30.09 in 10.0 mi NNE 15.0 mph 19.6 mph N/A   Clear
9:55 AM 50.5 °F - 16.0 °F 25% 30.08 in 10.0 mi North 11.5 mph 17.3 mph N/A   Clear
10:15 AM 50.7 °F - 14.2 °F 23% 30.09 in 10.0 mi NNW 6.9 mph 17.3 mph N/A   Clear
10:35 AM 52.0 °F - 14.2 °F 22% 30.09 in 10.0 mi North 11.5 mph 18.4 mph N/A   Clear
10:55 AM 51.6 °F - 14.4 °F 23% 30.09 in 10.0 mi NNW 4.6 mph 17.3 mph N/A   Clear
11:15 AM 54.1 °F - 11.8 °F 19% 30.09 in 10.0 mi NW 10.4 mph 18.4 mph N/A   Clear
11:35 AM 54.7 °F - 8.8 °F 16% 30.09 in 10.0 mi NNW 9.2 mph 20.7 mph N/A   Clear
11:55 AM 55.9 °F - 8.8 °F 15% 30.08 in 10.0 mi NW 11.5 mph 19.6 mph N/A   Clear
12:15 PM 56.3 °F - 9.1 °F 15% 30.08 in 10.0 mi WNW 10.4 mph 17.3 mph N/A   Clear
12:35 PM 56.8 °F - 8.6 °F 15% 30.07 in 10.0 mi NNW 11.5 mph 20.7 mph N/A   Clear
12:55 PM 57.2 °F - 9.5 °F 15% 30.07 in 10.0 mi WSW 6.9 mph 20.7 mph N/A   Clear
1:15 PM 55.2 °F - 8.8 °F 16% 30.06 in 10.0 mi NW 10.4 mph - N/A   Scattered Clouds
1:35 PM 58.6 °F - 8.2 °F 14% 30.05 in 10.0 mi NW 6.9 mph - N/A   Scattered Clouds
1:55 PM 60.6 °F - 7.3 °F 12% 30.05 in 10.0 mi WNW 10.4 mph 19.6 mph N/A   Clear
2:35 PM 59.7 °F - 7.5 °F 13% 30.04 in 10.0 mi SW 4.6 mph - N/A   Clear
2:55 PM 61.3 °F - 2.5 °F 9% 30.04 in 10.0 mi West 12.7 mph 21.9 mph N/A   Clear
3:15 PM 63.0 °F - 2.1 °F 9% 30.03 in 10.0 mi West 8.1 mph 19.6 mph N/A   Clear
3:35 PM 63.0 °F - -1.5 °F 7% 30.03 in 10.0 mi WSW 12.7 mph 26.5 mph N/A   Clear
3:55 PM 62.8 °F - -4.4 °F 7% 30.02 in 10.0 mi West 15.0 mph 24.2 mph N/A   Clear
4:15 PM 63.9 °F - -1.1 °F 7% 30.02 in 10.0 mi WNW 9.2 mph 16.1 mph N/A   Clear
4:35 PM 62.4 °F - -2.6 °F 7% 30.02 in 10.0 mi West 3.5 mph 20.7 mph N/A   Clear
4:55 PM 63.3 °F - 6.1 °F 10% 30.02 in 10.0 mi North 4.6 mph - N/A   Clear
5:15 PM 62.2 °F - 2.5 °F 9% 30.03 in 10.0 mi NNW 3.5 mph - N/A   Clear
5:35 PM 61.5 °F - 3.6 °F 10% 30.03 in 10.0 mi Calm Calm - N/A   Clear
5:55 PM 61.9 °F - 3.7 °F 10% 30.03 in 10.0 mi NNW 6.9 mph - N/A   Clear
6:15 PM 61.9 °F - 5.0 °F 10% 30.04 in 10.0 mi Calm Calm - N/A   Clear
6:35 PM 61.3 °F - 5.5 °F 11% 30.04 in 10.0 mi NE 10.4 mph - N/A   Clear
6:55 PM 60.3 °F - 5.5 °F 11% 30.04 in 10.0 mi NNE 12.7 mph - N/A   Clear
7:15 PM 59.2 °F - 5.2 °F 12% 30.06 in 10.0 mi NNE 11.5 mph - N/A   Clear
7:35 PM 57.7 °F - 5.0 °F 12% 30.07 in 10.0 mi NNE 11.5 mph - N/A   Clear
9:35 PM 53.6 °F - 2.5 °F 13% 30.15 in 10.0 mi North 11.5 mph - N/A   Clear
9:55 PM 52.7 °F - 1.2 °F 12% 30.16 in 10.0 mi North 12.7 mph 17.3 mph N/A   Clear
10:15 PM 52.0 °F - 0.5 °F 12% 30.17 in 10.0 mi NNE 13.8 mph 20.7 mph N/A   Clear
10:35 PM 51.6 °F - 0.3 °F 12% 30.17 in 10.0 mi North 11.5 mph 18.4 mph N/A   Clear
10:55 PM 50.9 °F - -0.2 °F 12% 30.18 in 10.0 mi North 15.0 mph 20.7 mph N/A   Clear
11:15 PM 50.2 °F - 0.3 °F 13% 30.19 in 10.0 mi North 11.5 mph 18.4 mph N/A   Clear
11:35 PM 48.7 °F - 0.3 °F 14% 30.19 in 10.0 mi North 9.2 mph - N/A   Clear
11:55 PM 48.4 °F - 0.1 °F 14% 30.20 in 10.0 mi NNE 11.5 mph 17.3 mph N/A   Clear